�N����,����,�~����,�C��,���x,�C��,����,���ϕ���,�ő�u�ԕ���,�ő厞����,���˗�,�I�_���x,�n�����x,�ő啗���N��,DTYPE
"20/12/18","00:10",0.0,-0.6,96.0,1017.5,300.8,1.2,1.9,321.4,0.00,-1.1,5.4,"00:02:00",1
"20/12/18","00:20",0.0,-0.6,96.3,1017.1,296.8,1.2,1.9,309.4,0.00,-1.1,5.2,"00:18:00",1
"20/12/18","00:30",0.0,-0.5,96.4,1016.8,304.9,1.5,1.9,310.2,0.00,-1.0,5.3,"00:20:16",1
"20/12/18","00:40",0.0,-0.6,96.4,1017.1,305.8,1.2,1.6,309.6,0.00,-1.1,5.3,"00:30:16",1
"20/12/18","00:50",0.0,-0.7,96.5,1017.1,296.9,0.6,1.3,319.5,0.00,-1.1,5.2,"00:41:20",1
"20/12/18","01:00",0.0,-0.9,96.6,1017.1,292.2,0.7,1.3,318.0,0.00,-1.3,5.3,"00:53:28",1
"20/12/18","01:10",0.0,-1.2,96.8,1017.1,273.5,0.5,1.1,329.5,0.00,-1.6,5.2,"01:06:56",1
"20/12/18","01:20",0.0,-1.4,96.9,1017.1,305.8,1.1,1.9,309.7,0.00,-1.8,4.9,"01:12:40",1
"20/12/18","01:30",0.0,-1.3,97.2,1017.1,335.2,0.6,1.3,312.3,0.00,-1.6,4.9,"01:28:00",1
"20/12/18","01:40",0.0,-1.6,97.1,1016.6,267.1,0.6,1.0,320.3,0.00,-2.0,5.1,"01:30:32",1
"20/12/18","01:50",0.0,-1.3,97.4,1016.8,239.8,0.3,2.1,317.3,0.00,-1.6,4.9,"01:40:02",1
"20/12/18","02:00",0.0,-1.2,97.4,1017.1,309.0,0.8,2.2,308.6,0.00,-1.5,5.1,"01:50:08",1
"20/12/18","02:10",0.0,-1.5,97.5,1017.3,290.8,1.2,1.6,313.4,0.00,-1.8,4.8,"02:01:20",1
"20/12/18","02:20",0.0,-1.2,97.6,1017.3,277.2,1.0,1.3,286.7,0.00,-1.5,5.0,"02:11:52",1
"20/12/18","02:30",0.0,-0.8,97.6,1017.5,268.7,0.2,0.9,309.7,0.00,-1.1,5.0,"02:22:16",1
"20/12/18","02:40",0.0,-0.6,97.7,1017.3,285.1,0.7,1.6,302.1,0.00,-0.9,4.9,"02:39:18",1
"20/12/18","02:50",0.0,-0.5,97.6,1017.3,279.1,1.7,1.9,313.1,0.00,-0.8,4.9,"02:44:48",1
"20/12/18","03:00",0.0,-0.7,97.7,1017.5,272.7,1.2,1.6,280.7,0.00,-1.0,5.0,"02:50:24",1
"20/12/18","03:10",0.0,-0.7,97.9,1017.5,281.8,1.2,1.4,290.0,0.00,-0.9,4.9,"03:04:40",1
"20/12/18","03:20",0.0,-0.7,97.8,1017.5,305.5,1.6,2.1,312.0,0.00,-1.0,4.9,"03:11:52",1
"20/12/18","03:30",0.0,-0.9,98.0,1017.8,296.1,0.8,1.2,299.0,0.00,-1.1,4.9,"03:20:16",1
"20/12/18","03:40",0.0,-0.8,97.3,1018.0,302.4,1.2,1.8,316.2,0.00,-1.1,5.1,"03:37:04",1
"20/12/18","03:50",0.0,-1.4,98.0,1017.8,275.5,0.6,1.1,311.8,0.00,-1.6,4.8,"03:40:40",1
"20/12/18","04:00",0.0,-1.1,97.6,1017.8,279.2,0.5,0.9,311.3,0.00,-1.4,4.7,"03:56:58",1
"20/12/18","04:10",0.0,-1.4,98.2,1017.5,292.8,1.0,1.4,285.5,0.00,-1.6,4.8,"04:01:36",1
"20/12/18","04:20",0.0,-1.2,97.7,1017.5,305.2,1.2,1.9,315.0,0.00,-1.5,4.7,"04:16:56",1
"20/12/18","04:30",0.0,-1.6,98.2,1017.5,276.2,0.7,1.0,263.0,0.00,-1.8,4.8,"04:22:12",1
"20/12/18","04:40",0.0,-1.4,97.8,1017.3,310.8,0.7,1.0,305.9,0.00,-1.7,4.9,"04:39:48",1
"20/12/18","04:50",0.0,-1.7,98.3,1017.3,294.5,0.7,1.0,288.1,0.00,-1.9,4.7,"04:48:46",1
"20/12/18","05:00",0.0,-1.6,97.9,1017.1,322.4,1.2,1.4,313.5,0.00,-1.8,4.7,"04:51:22",1
"20/12/18","05:10",0.0,-1.9,98.5,1017.3,310.4,1.2,1.8,314.8,0.00,-2.1,4.7,"05:00:38",1
"20/12/18","05:20",0.0,-1.8,97.9,1017.3,300.0,1.2,1.2,285.4,0.00,-2.0,4.7,"05:12:50",1
"20/12/18","05:30",0.0,-2.2,98.6,1017.1,296.6,1.6,1.9,306.2,0.00,-2.4,4.4,"05:24:32",1
"20/12/18","05:40",0.0,-2.0,98.1,1017.1,313.3,2.0,2.5,314.6,0.00,-2.2,4.5,"05:32:16",1
"20/12/18","05:50",0.0,-2.0,98.0,1017.3,302.8,1.8,2.2,306.4,0.00,-2.2,4.2,"05:45:40",1
"20/12/18","06:00",0.0,-2.1,98.0,1017.3,301.2,2.0,2.5,312.2,0.00,-2.3,4.5,"05:59:12",1
"20/12/18","06:10",0.0,-1.8,98.1,1017.3,320.6,1.8,2.1,310.9,0.00,-2.0,4.3,"06:00:08",1
"20/12/18","06:20",0.0,-1.9,97.9,1017.3,294.3,1.6,1.9,293.7,0.00,-2.1,4.3,"06:17:38",1
"20/12/18","06:30",0.0,-2.2,98.7,1018.0,303.0,1.7,2.5,316.3,0.00,-2.3,4.3,"06:26:08",1
"20/12/18","06:40",0.0,-1.9,98.2,1018.0,298.4,1.1,1.7,310.9,0.00,-2.1,4.3,"06:39:44",1
"20/12/18","06:50",0.0,-1.7,98.0,1017.8,299.2,1.6,1.9,305.0,0.00,-1.9,4.1,"06:47:28",1
"20/12/18","07:00",0.0,-2.1,98.0,1018.0,301.5,1.7,2.5,311.5,0.00,-2.3,4.2,"06:59:00",1
"20/12/18","07:10",0.0,-2.4,98.2,1018.0,289.9,1.7,2.0,284.0,0.00,-2.6,4.2,"07:05:04",1
"20/12/18","07:20",0.0,-2.0,98.3,1017.8,305.9,1.7,2.2,310.8,0.00,-2.2,3.9,"07:10:48",1
"20/12/18","07:30",0.0,-1.7,98.4,1018.2,288.8,1.2,2.0,307.1,0.00,-1.9,4.2,"07:26:24",1
"20/12/18","07:40",0.0,-1.5,98.4,1018.5,272.3,1.6,2.0,302.6,0.00,-1.7,4.1,"07:39:10",1
"20/12/18","07:50",0.0,-1.0,98.3,1018.5,309.3,2.6,3.5,324.4,0.01,-1.2,4.1,"07:47:20",1
"20/12/18","08:00",0.0,-0.6,98.3,1018.7,315.8,2.7,3.2,317.7,0.00,-0.8,4.3,"07:52:04",1
"20/12/18","08:10",0.0,-0.2,98.3,1019.0,302.6,2.6,4.0,318.3,0.03,-0.4,4.3,"08:07:28",1
"20/12/18","08:20",0.0,0.8,98.2,1018.5,291.5,1.3,1.7,304.1,0.06,0.6,4.5,"08:15:36",1
"20/12/18","08:30",0.0,1.7,97.9,1018.7,303.4,1.5,1.7,304.7,0.05,1.4,4.6,"08:20:40",1
"20/12/18","08:40",0.0,2.0,98.3,1019.0,316.5,1.1,1.2,313.0,0.04,1.8,5.0,"08:38:32",1
"20/12/18","08:50",0.0,2.5,97.3,1019.4,294.6,0.8,0.9,291.4,0.05,2.2,4.9,"08:47:42",1
"20/12/18","09:00",0.0,3.1,98.1,1019.4,280.4,1.0,1.3,286.1,0.09,2.9,4.9,"08:59:28",1
"20/12/18","09:10",0.0,3.7,97.5,1019.4,286.7,1.2,1.8,307.7,0.13,3.4,5.1,"09:08:30",1
"20/12/18","09:20",0.0,3.9,97.9,1019.4,280.7,0.8,1.4,279.6,0.17,3.6,5.4,"09:10:08",1
"20/12/18","09:30",0.0,4.3,97.7,1019.7,269.6,1.0,1.3,307.0,0.17,4.0,5.5,"09:28:44",1
"20/12/18","09:40",0.0,4.1,96.8,1019.7,278.9,0.8,0.9,281.4,0.15,3.7,5.7,"09:30:14",1
"20/12/18","09:50",0.0,4.9,97.3,1019.7,189.0,0.7,0.8,265.9,0.22,4.5,5.7,"09:46:46",1
"20/12/18","10:00",0.0,4.9,97.0,1019.7,126.2,0.1,0.4,209.2,0.20,4.5,6.1,"09:59:50",1
"20/12/18","10:10",0.0,5.0,96.8,1019.4,256.8,0.7,1.7,249.1,0.21,4.6,6.2,"10:09:16",1
"20/12/18","10:20",0.0,5.5,96.1,1019.4,275.9,0.8,1.2,260.8,0.28,5.0,6.4,"10:10:10",1
"20/12/18","10:30",0.0,5.9,95.8,1019.4,294.5,0.6,1.4,280.8,0.33,5.3,6.8,"10:22:00",1
"20/12/18","10:40",0.0,6.1,94.8,1019.7,238.7,0.8,1.8,235.0,0.37,5.4,6.8,"10:38:50",1
"20/12/18","10:50",0.0,6.9,93.4,1019.2,225.1,0.8,2.7,205.7,0.36,5.9,7.1,"10:41:04",1
"20/12/18","11:00",0.0,7.2,91.0,1019.2,229.4,1.2,2.7,320.6,0.31,5.9,7.3,"10:58:42",1
"20/12/18","11:10",0.0,7.9,87.1,1018.7,239.2,0.6,1.6,332.4,0.33,5.9,7.6,"11:00:02",1
"20/12/18","11:20",0.0,8.6,81.0,1018.7,305.5,1.0,2.7,262.5,0.40,5.6,7.7,"11:18:16",1
"20/12/18","11:30",0.0,9.3,75.7,1019.2,243.7,0.8,1.4,267.9,0.38,5.3,8.2,"11:27:52",1
"20/12/18","11:40",0.0,9.3,70.8,1019.2,267.0,1.5,3.7,298.8,0.37,4.3,8.2,"11:35:36",1
"20/12/18","11:50",0.0,9.1,69.4,1019.2,308.9,2.0,5.1,342.3,0.37,3.8,8.4,"11:41:36",1
"20/12/18","12:00",0.0,8.8,67.3,1018.7,305.5,2.5,6.2,330.5,0.39,3.1,8.7,"11:57:22",1
"20/12/18","12:10",0.0,9.3,64.6,1018.2,319.9,2.8,5.5,340.2,0.42,3.0,8.9,"12:09:36",1
"20/12/18","12:20",0.0,9.6,63.1,1018.0,315.7,3.1,6.5,345.3,0.43,3.0,9.1,"12:16:48",1
"20/12/18","12:30",0.0,9.7,59.7,1017.5,300.0,3.2,7.3,342.2,0.45,2.3,9.0,"12:22:24",1
"20/12/18","12:40",0.0,10.2,57.8,1017.5,306.4,2.7,4.8,340.8,0.42,2.3,9.4,"12:35:12",1
"20/12/18","12:50",0.0,10.2,55.7,1017.1,304.9,3.2,6.8,341.2,0.38,1.8,9.5,"12:44:32",1
"20/12/18","13:00",0.0,10.5,54.8,1016.8,306.9,2.8,6.2,307.5,0.37,1.8,9.5,"12:54:24",1
"20/12/18","13:10",0.0,10.6,53.3,1016.8,287.4,3.0,5.6,321.1,0.38,1.5,9.6,"13:04:32",1
"20/12/18","13:20",0.0,10.5,52.3,1016.6,269.5,3.0,10.5,342.2,0.36,1.2,9.5,"13:10:24",1
"20/12/18","13:30",0.0,10.4,51.3,1016.1,277.9,3.2,6.2,314.4,0.35,0.8,9.7,"13:27:36",1
"20/12/18","13:40",0.0,10.0,52.4,1016.4,263.3,3.5,6.4,236.2,0.28,0.8,9.7,"13:37:38",1
"20/12/18","13:50",0.0,9.9,51.7,1016.4,262.4,3.6,6.2,236.3,0.23,0.5,9.6,"13:45:16",1
"20/12/18","14:00",0.0,10.0,51.2,1016.4,282.6,3.4,6.5,310.8,0.20,0.4,9.6,"13:56:00",1
"20/12/18","14:10",0.0,9.7,51.9,1016.1,245.7,3.6,6.2,233.9,0.18,0.3,9.6,"14:05:36",1
"20/12/18","14:20",0.0,10.1,52.2,1016.1,252.1,3.2,5.7,253.0,0.26,0.8,9.7,"14:10:48",1
"20/12/18","14:30",0.0,10.4,52.1,1016.4,246.8,3.4,7.4,263.4,0.30,1.0,9.8,"14:25:52",1
"20/12/18","14:40",0.0,10.3,51.5,1015.9,266.7,3.1,6.6,322.0,0.28,0.8,9.9,"14:34:58",1
"20/12/18","14:50",0.0,10.4,52.2,1015.9,253.1,2.7,7.0,261.5,0.21,1.1,9.8,"14:41:36",1
"20/12/18","15:00",0.0,10.4,51.6,1015.9,260.7,2.3,5.4,219.2,0.18,0.9,9.8,"14:50:40",1
"20/12/18","15:10",0.0,10.1,51.4,1016.1,265.5,2.8,4.9,230.8,0.13,0.6,9.8,"15:03:52",1
"20/12/18","15:20",0.0,10.0,52.1,1016.4,274.2,2.5,5.4,309.4,0.13,0.7,9.5,"15:15:28",1
"20/12/18","15:30",0.0,9.6,52.0,1016.4,249.9,2.7,4.2,231.8,0.11,0.3,9.6,"15:20:48",1
"20/12/18","15:40",0.0,9.6,52.6,1016.4,250.9,3.4,5.8,238.8,0.14,0.4,9.4,"15:31:44",1
"20/12/18","15:50",0.0,9.5,53.7,1015.9,234.5,3.1,5.5,233.1,0.12,0.6,9.4,"15:41:36",1
"20/12/18","16:00",0.0,9.5,53.9,1016.1,259.9,2.6,5.4,234.6,0.08,0.7,9.3,"15:53:04",1
"20/12/18","16:10",0.0,9.4,53.7,1016.6,268.2,2.3,3.6,247.9,0.05,0.5,9.3,"16:00:56",1
"20/12/18","16:20",0.0,8.8,54.7,1015.9,254.0,2.8,4.8,316.9,0.02,0.2,9.2,"16:12:48",1
"20/12/18","16:30",0.0,8.6,55.8,1016.1,264.2,2.2,4.3,266.8,0.01,0.3,9.3,"16:29:52",1
"20/12/18","16:40",0.0,8.4,56.4,1016.4,260.3,2.5,4.2,244.1,0.00,0.3,9.2,"16:33:52",1
"20/12/18","16:50",0.0,8.2,57.3,1016.1,256.4,2.5,4.4,292.4,0.00,0.3,9.0,"16:47:52",1
"20/12/18","17:00",0.0,8.0,58.3,1016.4,262.6,2.3,3.4,242.4,0.00,0.4,8.9,"16:59:12",1
"20/12/18","17:10",0.0,7.7,59.1,1016.1,258.8,2.3,4.8,230.5,0.00,0.3,8.8,"17:07:12",1
"20/12/18","17:20",0.0,7.7,58.9,1016.1,265.0,2.6,4.8,228.7,0.00,0.2,8.8,"17:10:32",1
"20/12/18","17:30",0.0,7.3,60.0,1016.4,288.5,2.1,3.2,318.2,0.00,0.1,8.6,"17:25:52",1
"20/12/18","17:40",0.0,7.0,61.4,1016.6,283.2,1.8,2.8,303.9,0.00,0.1,8.4,"17:34:48",1
"20/12/18","17:50",0.0,6.6,64.1,1016.6,318.0,1.8,2.7,325.5,0.00,0.3,8.7,"17:44:00",1
"20/12/18","18:00",0.0,6.0,67.7,1016.6,322.7,2.2,3.2,323.4,0.00,0.5,8.2,"17:58:16",1
"20/12/18","18:10",0.0,5.6,69.3,1015.9,299.3,1.2,2.1,319.8,0.00,0.5,8.3,"18:00:40",1
"20/12/18","18:20",0.0,5.4,70.5,1016.1,292.7,1.2,2.4,322.4,0.00,0.5,8.3,"18:16:40",1
"20/12/18","18:30",0.0,5.2,71.4,1016.1,304.8,1.2,1.9,316.2,0.00,0.5,8.2,"18:20:40",1
"20/12/18","18:40",0.0,5.1,72.6,1016.4,297.0,1.5,4.0,341.9,0.00,0.6,8.1,"18:39:46",1
"20/12/18","18:50",0.0,5.2,73.3,1015.6,325.0,1.6,2.5,317.7,0.00,0.9,7.9,"18:40:56",1
"20/12/18","19:00",0.0,4.6,73.8,1015.6,290.7,1.1,1.9,317.8,0.00,0.4,7.8,"18:54:16",1
"20/12/18","19:10",0.0,4.2,74.9,1015.9,316.6,1.6,2.6,326.5,0.00,0.2,7.9,"19:02:00",1
"20/12/18","19:20",0.0,3.8,76.1,1015.2,320.9,1.5,2.8,335.4,0.00,0.0,7.8,"19:16:24",1
"20/12/18","19:30",0.0,3.3,77.1,1015.4,316.5,1.5,2.8,323.0,0.00,-0.3,7.5,"19:20:16",1
"20/12/18","19:40",0.0,2.9,78.3,1015.2,297.8,1.5,2.2,306.8,0.00,-0.5,7.5,"19:32:00",1
"20/12/18","19:50",0.0,2.8,79.5,1014.5,302.0,1.5,2.8,328.7,0.00,-0.3,7.4,"19:40:02",1
"20/12/18","20:00",0.0,3.1,80.3,1015.4,317.1,2.3,3.5,335.8,0.00,0.1,7.2,"19:50:24",1
"20/12/18","20:10",0.0,3.0,81.3,1015.4,317.2,1.6,3.4,335.0,0.00,0.2,7.2,"20:05:52",1
"20/12/18","20:20",0.0,2.5,82.2,1015.6,302.9,1.5,2.7,317.8,0.00,-0.2,7.1,"20:16:56",1
"20/12/18","20:30",0.0,2.3,83.4,1015.4,306.4,1.8,3.2,331.8,0.00,-0.2,7.1,"20:27:28",1
"20/12/18","20:40",0.0,2.1,84.3,1015.2,299.5,1.8,3.6,304.9,0.00,-0.2,7.1,"20:39:04",1
"20/12/18","20:50",0.0,2.0,85.4,1015.2,320.7,2.0,3.7,326.9,0.00,-0.1,7.1,"20:40:02",1
"20/12/18","21:00",0.0,2.7,85.6,1014.9,311.8,2.0,4.2,332.9,0.00,0.6,7.0,"20:51:28",1
"20/12/18","21:10",0.0,2.7,85.9,1014.9,297.9,1.2,2.5,326.0,0.00,0.6,6.8,"21:01:28",1
"20/12/18","21:20",0.0,2.9,86.0,1014.7,336.1,2.0,3.6,325.7,0.00,0.8,6.8,"21:15:44",1
"20/12/18","21:30",0.0,2.5,86.2,1014.9,300.9,2.0,3.6,303.0,0.00,0.5,7.0,"21:29:44",1
"20/12/18","21:40",0.0,4.4,85.7,1015.2,275.0,2.5,5.0,332.8,0.00,2.3,6.8,"21:33:46",1
"20/12/18","21:50",0.0,5.2,83.6,1015.4,286.4,2.3,5.2,337.7,0.00,2.7,6.9,"21:43:20",1
"20/12/18","22:00",0.2,5.5,81.2,1015.9,286.7,2.6,4.8,337.1,0.00,2.6,6.8,"21:50:32",1
"20/12/18","22:10",0.0,5.6,78.6,1015.9,299.3,2.8,5.0,314.5,0.00,2.2,6.8,"22:05:36",1
"20/12/18","22:20",0.0,5.8,76.3,1016.1,296.0,3.1,6.4,321.4,0.00,2.0,7.0,"22:19:52",1
"20/12/18","22:30",0.0,5.8,74.7,1015.9,294.7,3.2,6.0,320.7,0.00,1.7,6.6,"22:26:16",1
"20/12/18","22:40",0.0,5.9,73.3,1015.9,295.5,3.4,4.9,305.8,0.00,1.5,6.6,"22:36:56",1
"20/12/18","22:50",0.0,5.8,72.8,1015.9,300.0,3.7,6.2,331.1,0.00,1.3,6.8,"22:47:12",1
"20/12/18","23:00",0.0,5.9,72.4,1015.9,298.4,3.9,6.6,314.3,0.00,1.4,6.9,"22:51:36",1
"20/12/18","23:10",0.0,5.9,72.1,1016.4,300.6,4.5,6.8,319.5,0.00,1.3,6.7,"23:04:16",1
"20/12/18","23:20",0.0,5.8,72.1,1016.1,301.9,4.2,7.1,308.4,0.00,1.2,6.7,"23:18:56",1
"20/12/18","23:30",0.0,5.8,72.2,1015.9,306.4,4.5,7.9,315.6,0.00,1.2,6.8,"23:24:16",1
"20/12/18","23:40",0.0,5.7,72.3,1016.1,297.1,3.9,6.4,304.7,0.00,1.1,6.8,"23:30:02",1
"20/12/18","23:50",0.0,5.6,72.5,1015.9,304.1,4.0,7.2,331.2,0.00,1.1,6.8,"23:40:32",1
"20/12/18","24:00",0.0,5.5,73.0,1015.6,297.7,3.6,5.8,322.5,0.00,1.1,6.7,"23:51:04",1
